Regional Weather Roundup
Issued by NWS

Home | Current Version | Previous Version | Text Only | Print | Product List | Glossary Off
Versions: 1 2 3 4 5 6 7 8 9 10 11 12 13 14 15 16 17 18 19 20 21 22 23 24 25 26 27 28 29 30 31 32 33 34 35 36 37 38 39 40 41 42 43 44 45 46 47 48 49 50

000
ASUS43 KLSX 241010
RWRMO

WEATHER SUMMARY FOR MISSOURI
NATIONAL WEATHER SERVICE SPRINGFIELD MO
500 AM CDT WED AUG 24 2016

NOTE: "FAIR" INDICATES FEW OR NO CLOUDS BELOW 12,000 FEET WITH NO
       SIGNIFICANT WEATHER AND/OR OBSTRUCTIONS TO VISIBILITY.
       CURRENT SKY AND/OR WEATHER CONDITIONS ARE NOT AVAILABLE FOR
       CHILLICOTHE AND FARMINGTON.

MOZ001>031-035>038-043-044-053-054-241100-
...NORTHERN AND WESTERN MISSOURI...

CITY           SKY/WX    TMP DP  RH WIND       PRES   REMARKS
KANSAS CTY INT HVY RAIN  67  64  90 VRB3      30.00F FOG
KANSAS C DTWN  LGT RAIN  70  66  87 N7        30.01R
LEE`S SUMMIT   HVY RAIN  74  70  87 N20G26    30.01R FOG
ST JOSEPH      TSTM      67  66  97 S16       29.92F FOG
CHILLICOTHE      N/A     70  68  93 S8        29.96F
KIRKSVILLE     RAIN      74  71  91 SW12      29.95F FOG

$$
MOZ066>068-077>081-088>096-101>105-241100-
...SOUTHWEST MISSOURI...

CITY           SKY/WX    TMP DP  RH WIND       PRES   REMARKS
SPRINGFIELD    CLEAR     74  69  85 S10       30.06S
JOPLIN         PTCLDY    77  71  82 S14       30.03S
BRANSON        CLOUDY    75  72  88 S5        30.11R

$$
MOZ032>034-039>042-045>050-055>058-069>072-241100-
...CENTRAL MISSOURI...

CITY           SKY/WX    TMP DP  RH WIND       PRES   REMARKS
COLUMBIA       MOCLDY    75  72  90 S14       30.01S
JEFFERSON CITY CLOUDY    77  71  82 S6        30.01S
ROLLA          CLEAR     74  71  91 S10       30.05S
SEDALIA        PTCLDY    78  70  76 S15       29.99F
WHITEMAN AFB   MOCLDY    77  73  86 SW21G26   29.95S
OSAGE BEACH    CLEAR     76  71  85 S7        30.04R

$$
MOZ051-052-059>065-241100-
...EAST CENTRAL MISSOURI...

CITY           SKY/WX    TMP DP  RH WIND       PRES   REMARKS
ST LOUIS INTL  CLOUDY    76  72  87 S9        30.05F
SPIRIT OF STL  CLOUDY    76  74  93 S5        30.02F
ST CHARLES     CLOUDY    75  74  96 S7        30.02F

$$
MOZ072>076-082>087-097>100-106>115-241100-
...SOUTH CENTRAL AND SOUTHEAST MISSOURI...

CITY           SKY/WX    TMP DP  RH WIND       PRES   REMARKS
CAPE GIRARDEAU CLOUDY    75  73  93 S8        30.11F
FARMINGTON     CLOUDY    74  73  97 S7        30.10F
POPLAR BLUFF   PTCLDY    72  71  97 SE5       30.11S
WEST PLAINS    PTCLDY    75  71  87 S7        30.13S

$$




USA.gov is the U.S. government's official web portal to all federal, state and local government web resources and services.